Terug naar catalogus

STARLINK-30524

ActiefCommunicatieVLEO
NORAD 57965·PAYLOAD·🇺🇸 United States

Gelanceerd Sep 30, 2023 vanaf Cape Canaveral Space Force Station

Loading…

Volgende Passages (komende 24 uur)

TLE

VersSource: CelesTrak SupGP

Epoch: Sep 15, 2026, 02:48 UTC

1 57965C 23151B   26258.11715278  .00018910  00000+0  68501-3 0  2588
2 57965  43.0041 346.4490 0002243 260.4068 123.9743 15.27563463    15

Volg STARLINK-30524 in realtime met AllMySat

Download on the App Store